Location: Caltech
(34.1382°N, 118.1253°W)
Time: 20:56:47
(UTC-07:00)

PCSat - Visible Passes

Search period start: 21 August 2014 00:00
Search period end: 31 August 2014 00:00
Orbit: 786 x 796 km, 67.1° (Epoch: 21 August)

Date Brightness Start Highest point End Pass type
(mag) Time Alt. Az. Time Alt. Az. Time Alt. Az.
21 Aug 11.8 03:58:12 10° N 04:02:38 25° NE 04:07:03 10° ESE visible
21 Aug 10.0 05:41:07 10° NW 05:46:07 39° WSW 05:51:06 10° S visible
21 Aug 12.4 20:20:17 10° WSW 20:24:23 22° NW 20:28:31 10° N visible
22 Aug 12.2 03:28:10 10° N 03:31:54 19° NE 03:35:38 10° E visible
22 Aug 9.6 05:10:22 10° NW 05:15:39 56° WSW 05:20:55 10° S visible
22 Aug 11.9 19:49:01 10° WSW 19:53:41 29° NW 19:58:23 10° N visible
23 Aug 12.5 02:58:25 10° NNE 03:01:07 14° NE 03:03:48 10° ENE visible
23 Aug 9.4 04:39:43 10° NNW 04:45:09 80° WSW 04:50:33 10° SSE visible
24 Aug 9.7 04:09:11 10° NNW 04:14:37 73° ENE 04:20:00 10° SSE visible
25 Aug 10.3 03:38:44 10° NNW 03:44:02 52° ENE 03:49:17 10° SE visible
25 Aug 10.9 05:23:32 10° WNW 05:26:57 17° WSW 05:30:22 10° SW visible
25 Aug 12.9 20:04:58 10° WNW 20:06:06 11° NW 20:07:14 10° NW visible
26 Aug 10.9 03:08:23 10° N 03:13:21 37° ENE 03:13:21 37° ENE visible
26 Aug 11.2 04:52:15 10° NW 04:53:50 17° WNW 04:53:50 17° WNW visible
27 Aug 11.7 02:38:09 10° N 02:40:58 23° NNE 02:40:58 23° NNE visible
27 Aug 11.8 04:21:16 10° NW 04:21:34 11° NW 04:21:34 11° NW visible
28 Aug 12.2 02:08:03 10° N 02:09:34 15° NNE 02:09:34 15° NNE visible
29 Aug 12.5 01:38:12 10° NNE 01:38:37 11° NNE 01:38:37 11° NNE visible
